Погода в Нолинске

Погода в Нолинске : погода сейчас, прогноз погоды и архив. Всё, что Вы хотите узнать о погоде в Нолинске!

Хотите узнать прогноз погоды в Нолинске? Тогда Вам сюда: Погода в Нолинске

Поиск расширенной информации на нашем сайте:

Другие новости

Новости СМИ2

Главная страница сайта

Новости сайта

03.07.2017

Напоминаем, что на нашем специализированном сайте Метеоцентр.Азия вы можете получить высокодетализированные автоматические прогнозы погоды по пунктам России, СНГ и мира в авиационном формате (включающие направление и скорость ветра, видимость, явления погоды, количество и форму облачности, нижнюю и верхнюю границу облачности).


Погода в Нолинске - сегодня

Время (UTC), дата Ветер
(°,м/с) 
Видим.   Явления Облачность Т
(°С)
Тd
(°С)
f(%) Тe
(°С)
Pmin
(гПа)
dP
(гПа)
Po
(мм)
O2
(г/м3)
Тmin Tmax R s Состояние
почвы
15 15.09.18 180 (Ю) 2-2{05}  20000 м    3/3 600 м верхняя 
[Sc|Ci fib]
+14.5 +8.1 65 +15  1021.1  -0.2  754  287    +19.3       
18 15.09.18 тихо () -0{02}  20000 м    ясно 
+9.5 +7 84 +10  1021.9  0.5  754  292           
21 15.09.18 080 (В) 1-1{01}  20000 м    ясно 
+8.2 +6.7 90 +9  1022  0.1  754  294           
03 16.09.18 080 (В) 1-2{05}  20000 м  туман поземный  8/4 600 м верхняя 
[Sc|Ci fib]
+3.7 +3 95 +5  1022.2  0.1  754  299  +3.6        сухая 
15 16.09.18 090 (В) 2-4{07}  20000 м    10/0 средняя, верхняя 
[Ac trans|Ci]
+15.6 +8.8 64 +16  1015.1  -1.8  749  284    +19.6       
21 16.09.18 070 (В) 1-2{03}  20000 м    9/0 средняя, верхняя 
[Ac trans|Ci fib]
+13.3 +7.6 68 +15  1011.4  -1.7             
03 17.09.18 120 (ЮВ) 1-3{04}  20000 м    10/0 средняя, верхняя 
[Ac lent|Ci sp]
+9.3 +6.7 84 +10  1007.5  -1.6  744  289  +8.3        сухая 
15 17.09.18 270 (З) 2-4{06}  20000 м    8/4 600 м кучево-дожд., средняя, верхняя 
[Cb cap|Ac trans|Ci fib]
+11.5 +9.9 90 +13  1011.2  3.2  746  287    +13.3  10     
03 18.09.18 090 (В) 1-2{02}  20000 м  туман поземный  4/0 средняя, верхняя 
[Ac trans|Ci fib]
+1.4 +0.9 96 +2  1014.5  -0.9  748  300  +0.9        влажная 
15 18.09.18 180 (Ю) 3-4{04}  20000 м    9/4 600 м средняя 
[Sc|Ac und]
+10.2 +5.5 73 +10  1007.3  -1.9  743  288    +12.3       
03 19.09.18 260 (З) 2-4{05}  10 км  слаб. ливневой дождь  10/9 300 м кучево-дожд., средняя 
[Cb cap|Ac und]
+9.1 +8.5 96 +9  1002.5  -0.3  740  287  +8.6      мокрая 
15 19.09.18 320 (СЗ) 6-9{13}  20000 м    8/0 средняя 
[Ac lent]
+9.5 +6.1 79 +8  1006.5  1.3  743  288    +11.2     
21 19.09.18 320 (СЗ) 4-6{09}  20000 м    ясно 
+6.7 +3.9 82 +5  1008.2  0.2  744  292           
03 20.09.18 280 (З) 2-4{04}  20000 м    1/0 верхняя 
[Ci fib]
+4.6 +3.4 92 +4  1009.9  0.6  745  295  +4.5        влажная 
15 20.09.18 270 (З) 2-3{04}  20000 м  слаб. ливневой дождь  10/10 600 м кучево-дожд. 
[Cb cap]
+10.2 +7.6 84 +10  1010.3  0.9  746  288    +14.5  0.6     
03 21.09.18 060 (СВ) 1-1{02}  20000 м  туман поземный  4/1 600 м средняя, верхняя 
[Sc|Ac trans|Ci fib]
+5 +4.3 95 +6  1014.2  1.3  748  295  +4.1      влажная 
15 21.09.18 240 (ЮЗ) 3-3{05}  20000 м    9/8 600 м средняя, верхняя 
[Sc diur, vesp|Ac trans|Ci fib]
+13.6 +10.5 82 +16  1016.1  0.8  750  286    +15.5       
03 22.09.18 250 (З) 3-4{04}  2000 м  дымка  10/0 средняя 
[Ac As]
+9.9 +9.3 96 +9  1017.4  0.3  751  290  +8.5    0.0    влажная 
15 22.09.18 230 (ЮЗ) 2-2{06}  20000 м    6/0 верхняя 
[Ci fib]
+17.4 +14.8 85 +26  1017.4  0.1  751  281    +21.7       
03 23.09.18 280 (З) 1-1{01}  1000 м  дымка  3/0 верхняя 
[Ci fib]
+9.3 +8.9 97 +10  1016.6  -0.6  750  291  +9        влажная 
15 23.09.18 170 (Ю) 5-7{10}  20000 м    3/1 600 м верхняя 
[Sc|Ci fib]
+18.3 +12.2 68 +22  1010.9  -1.2  746  280    +22.2       
03 24.09.18 180 (Ю) 5-7{09}  20000 м    8/1 600 м средняя, верхняя 
[Sc|Ac trans|Ci fib]
+13.1 +9.5 79 +13  1007.6  -0.3  744  284  +12.3        сухая 
15 24.09.18 300 (СЗ) 1-3{07}  20000 м  {ливн. осадки}  10/8 600 м кучево-дожд., средняя 
[Cb cap|Ac As]
+9.9 +8.6 92 +11  1011.7  2.3  747  289    +19     
03 25.09.18 тихо () -0{02}  4000 м  дымка  10/10 600 м 
[Sc]
+7.8 +7.1 95 +8  1010.4  -0.5  746  291  +6.2        влажная 
15 25.09.18 180 (Ю) 7-12{15}  4000 м  дождь  10/8 300 м средняя 
[Frnb|As op]
+11.4 +10.4 94 +12  1005.5  -1  742  285    +12.2     
Время (UTC), дата Ветер
(°,м/с) 
Видим.   Явления Облачность Т
(°С)
Тd
(°С)
f(%) Тe
(°С)
Pmin
(гПа)
dP
(гПа)
Po
(мм)
O2
(г/м3)
Тmin Tmax R s Состояние
почвы

Для получения пояснительной информации подведите курсор к названию столбца.

ПОГОДА в Нолинске - архив

Всё, что Вы хотите узнать о погоде в Нолинске - удобно и подробно!

Выберите нужную дату (начиная с 1 января 2015* года) и нажмите кнопку "Найти".
Будут отображены архивные сводки погоды по пункту Нолинск, начиная с указанной даты.


Отображать данные в формате CSV (для использования в таблицах Excel)


Внимание! Наш архив погоды предназначен исключительно для личного некоммерческого использования в познавательных целях. Если Вам необходимы официальные справки о состоянии погоды (для производственных, юридических, коммерческих и т.п. целей), обращайтесь в органы Росгидромета.

*Примечание: данная дата относится к архиву по метеостанциям СССР (Россия, СНГ, Балтия).
Архив по метеостанциям Зарубежной Европы и Азии (кроме Китая) хранится 10 дней, по другим регионам земного шара (Китай, Африка, Америка, Австралия, Океания) - 1 день.

Нолинск - район местоположения метеостанции


Название, широта, долгота, высота метеостанции:
Нолинск 57.6°ш. 49.9°д. 136 м над ур. моря [Российская Федерация]

Дополнительная информация

В oтличие oт бoльшинства пoгoдных сайтoв мы публикуем пoдрoбную метеoинфoрмацию в детальнoм прoфессиoнальнoм фoрмате.

Характеристики температуры и влажнoсти вoздуха измеряются на высoте 2 м в тени вдали oт зданий и деревьев.
Скoрoсть ветра измеряется на высoте 10 м (на урoвне рoста челoвека скoрoсть ветра ниже в 1.5-2 раза). Если метеoстанция нахoдится в гoрoде или в лесу, тo скoрoсть ветра занижена на 2-4 м/с пo сравнению с oткрытым местoм. Скoрoсть ветра над акватoриями крупных рек и oзёр, а также на вершинах хoлмoв на 2-5 м/с выше, чем в oбычных услoвиях.
Атмoсфернoе давление в разных тoчках местнoсти мoжет значительнo oтличаться oт давления на метеoстанции, в зависимoсти oт услoвий рельефа (при пoдъёме на 10 м давление пoнижается примернo на 1 мм рт.ст.).